AirNav   Everest Fuels
 
 923 users online  

KDLC Dillon County Airport
Dillon, South Carolina, USA

GOING TO DILLON?


FAA INFORMATION EFFECTIVE 30 JANUARY 2020

Location

FAA Identifier: DLC
Lat/Long: 34-26-56.6000N 079-22-06.9000W
34-26.943333N 079-22.115000W
34.4490556,-79.3685833
(estimated)
Elevation: 133.1 ft. / 40.6 m (surveyed)
Variation: 06W (1985)
From city: 3 miles N of DILLON, SC
Time zone: UTC -5 (UTC -4 during Daylight Saving Time)
Zip code: 29536

Airport Operations

Airport use: Open to the public
Activation date: 08/1960
Control tower: no
ARTCC: JACKSONVILLE CENTER
FSS: ANDERSON FLIGHT SERVICE STATION
NOTAMs facility: AND (NOTAM-D service available)
Attendance: UNATNDD
Wind indicator: yes
Segmented circle: yes
Lights: SS-SR
Beacon: white-green (lighted land airport)
Operates sunset to sunrise.

Airport Communications

CTAF: 122.9
FLORENCE APPROACH: 118.6
FLORENCE DEPARTURE: 118.6
WX AWOS-3 at MAO (16 nm S): 119.875 (843-423-4231)
WX ASOS at LBT (18 nm NE): 134.775 (910-671-1906)
  • APCH/DEP SVC PRVDD BY JACKSONVILLE ARTCC ON FREQS 133.45/306.3 (FLORENCE RCAG) WHEN FLORENCE APCH CTL CLSD.

Nearby radio navigation aids

VOR radial/distance  VOR name  Freq  Var
FLOr051/19.3FLORENCE VORTAC115.2003W

 
NDB name  Hdg/Dist  Freq  Var  ID
DILLONat field27409WDLC -.. .-.. -.-.
JIGEL251/12.838408WJB .--- -...
ROBESON245/18.235908WRSY .-. ... -.--
BENNETTSVILLE128/20.723008WBES -... . ...
DARLINGTON095/25.724506WUDG ..- -.. --.
CAMP295/34.222707WCPC -.-. .--. -.-.
MACKALL177/35.227806WHFF .... ..-. ..-.
HARTSVILLE093/37.334107WHVS .... ...- ...
HORRY350/39.437008WHYW .... -.-- .--

Airport Services

Parking: tiedowns
Airframe service: NONE
Powerplant service: NONE
Bottled oxygen: NONE
Bulk oxygen: NONE

Runway Information

Runway 7/25

Dimensions: 3000 x 60 ft. / 914 x 18 m
Surface: asphalt/aggregate friction seal coat, in good condition
Weight bearing capacity: 
Single wheel: 10.0
Runway edge lights: medium intensity
RUNWAY 7  RUNWAY 25
Latitude: 34-26.834567N34-27.051700N
Longitude: 079-22.383617W079-21.847200W
Elevation: 133.1 ft.117.3 ft.
Traffic pattern: leftleft
Runway heading: 070 magnetic, 064 true250 magnetic, 244 true
Markings: nonprecision, in good conditionnonprecision, in good condition
Touchdown point: yes, no lightsyes, no lights
Obstructions: 44 ft. pole, 773 ft. from runway, 258 ft. right of centerline, 12:1 slope to clear50 ft. tree, 276 ft. from runway, 135 ft. left of centerline, 1:1 slope to clear

Airport Ownership and Management from official FAA records

Ownership: Publicly-owned
Owner: DILLON COUNTY
PO BOX 449
DILLON, SC 29536
Phone (843) 774-1401
Manager: WINNA MILLER
PO BOX 449
DILLON, SC 29536
Phone (843) 627-6153

Airport Operational Statistics

Aircraft operations: avg 26/month *
54% local general aviation
36% transient general aviation
10% military
* for 12-month period ending 10 October 2018

Additional Remarks

FOR CD CTC FLORENCE APCH AT 843-669-5194, WHEN APCH CLSD CTC JACKSONVILLE ARTCC AT 904-845-1592.

Instrument Procedures

NOTE: All procedures below are presented as PDF files. If you need a reader for these files, you should download the free Adobe Reader.

NOT FOR NAVIGATION. Please procure official charts for flight.
FAA instrument procedures published for use from 30 January 2020 at 0901Z to 27 Feburary 2020 at 0900Z.

 
IAPs - Instrument Approach Procedures
VOR/DME OR GPS RWY 07   download (147KB)
NOTE: Special Take-Off Minimums/Departure Procedures apply   download (141KB)

Other nearby airports with instrument procedures:

KMAO - Marion County Airport (16 nm S)
KLBT - Lumberton Regional Airport (18 nm NE)
KMEB - Laurinburg-Maxton Airport (21 nm N)
KBBP - Marlboro County Jetport - H E Avent Field (21 nm NW)
KFLO - Florence Regional Airport (24 nm SW)
 
Loc | Ops | Rwys | IFR | FBO | Links
Com | Nav | Svcs | Stats | Notes
Area around KDLC (Dillon County Airport)
 
Road maps at: MapQuest Bing Google
 
Aerial photo
WARNING: Photo may not be current or correct
Aerial photo of KDLC (Dillon County Airport)
Do you have a better or more recent aerial photo of Dillon County Airport that you would like to share? If so, please send us your photo.

 
Sectional chart

 
Airport distance calculator
Flying to Dillon County Airport? Find the distance to fly.

From to KDLC

Sunrise and sunset
Times for 19-Feb-2020
 Local
(UTC-5)
 Zulu
(UTC)
Morning civil twilight06:3411:34
Sunrise06:5911:59
Sunset18:0323:03
Evening civil twilight18:2923:29

Current date and time
Zulu (UTC)  20-Feb-2020 02:39:43
Local (UTC-5)  19-Feb-2020 21:39:43
 
METAR
KMAO 
16nm S 
191855Z AUTO 05014G18KT 4SM -RA OVC008 10/10 A3028 RMK AO2 P0002
KMEB 
20nm N 
200152Z AUTO 06006KT 10SM OVC055 09/04 A3039 RMK AO2 SLP291 T00890039
KBBP 
21nm NW 
200215Z AUTO 02005KT 10SM OVC055 08/05 A3039 RMK AO2
KFLO 
24nm SW 
200153Z 03007KT 10SM OVC047 09/04 A3038 RMK AO2 SLP284 T00940044
KUDG 
25nm W 
200156Z AUTO 03005KT 10SM OVC050 08/06 A3039 RMK AO2 SLP291 T00830056 TSNO
TAF
KLBT 
17nm NE 
191720Z 1918/2018 02010G17KT P6SM -RA BKN012 FM192300 03007KT P6SM BKN040 FM201400 05010KT 6SM -RA BKN020 AMD NOT SKED
NOTAMs
Click for the latest NOTAMs
NOTAMs are issued by the DoD/FAA and will open in a separate window not controlled by AirNav.

 

 
 

Aviation Businesses, Services, and Facilities

  
 Business Name 
 
 Contact 
 
 Services / Description 
 
Distance
 
Comments
  
Price Flying Service 843-774-2636
no information available

If you are affiliated with Price Flying Service and would like to show here your services, contact info, web link, logo, and more, click here
on airport  
   write
 

Would you like to see your business listed on this page?

 If your business provides an interesting product or service to pilots, flight crews, aircraft, or users of the Dillon County Airport, you should consider listing it here.  To start the listing process, click on the button below
 
Add a business
 

Other Pages about Dillon County Airport

Update a link
 
Copyright © AirNav, LLC. All rights reserved. Privacy Policy  Contact